Meteo Giornale » Osservazioni meteo Cina » Guiyang
ore: 04:00 - Osservazioni Meteo Guiyang
Lat. 26° 35' N Lon. 106° 43' E Alt. 1074 metri s.l.m.
19 °C
Sereno
Temp. 24 Ore
19 °C
26 °C
Nord
10.8 Km/h
Dew point 16 °C
Umidità 82 %
Visibilità 10 Km
Il sole sorge alle ore 06:32
Il sole tramonta alle ore 19:13
| Data e Ora | Cielo e Fenomeni | T °C | DP °C | Um. % | Pres. hPa | Vis. km | Vento km/h | |
|---|---|---|---|---|---|---|---|---|
| Oggi h: 04:00 | Sereno | 19 | 16 | 82 | 1016 | 10 | N 10.8 | |
| Oggi h: 03:00 | Poco Nuvoloso | 19 | 16 | 82 | 1016 | 10 | N 3.6 | |
| Oggi h: 02:00 | Sereno | 19 | 16 | 82 | 1016 | 10 | N 3.6 | |
| Oggi h: 01:00 | Nuvoloso | 19 | 16 | 82 | 1016 | 10 | N 7.2 | |
| Oggi h: 00:00 | Sereno | 20 | 16 | 77 | 1016 | 10 | N 3.6 | |
| Ieri h: 23:00 | Sereno | 19 | 16 | 82 | 1016 | 10 | N 3.6 | |
| Ieri h: 22:00 | Sereno | 20 | 16 | 77 | 1015 | 10 | N 10.8 | |
| Ieri h: 21:00 | Sereno | 21 | 15 | 68 | 1015 | 10 | N 7.2 | |
| Ieri h: 20:00 | Sereno | 23 | 14 | 56 | 1014 | 10 | N 3.6 | |
| Ieri h: 19:00 | Sereno | 24 | 13 | 50 | 1014 | 10 | N/NE 14.4 | |
| Ieri h: 18:00 | Poco Nuvoloso | 26 | 13 | 44 | 1013 | 10 | N/NE 21.6 | |
| Ieri h: 17:00 | Poco Nuvoloso | 26 | 13 | 44 | 1014 | 10 | N/NE 21.6 | |
| Ieri h: 16:00 | Poco Nuvoloso | 26 | 15 | 50 | 1014 | 10 | N 18 | |
| Ieri h: 15:00 | Poco Nuvoloso | 25 | 16 | 57 | 1015 | 10 | N 18 | |
| Ieri h: 14:00 | Poco Nuvoloso | 23 | 16 | 64 | 1015 | 10 | N/NO 18 | |
| Ieri h: 13:00 | Nuvoloso | 25 | 16 | 57 | 1016 | 10 | N 25.2 | |
| Ieri h: 12:00 | Molto Nuvoloso | 23 | 16 | 64 | 1016 | 10 | N 14.4 | |
| Ieri h: 11:00 | Coperto | 22 | 17 | 73 | 1016 | 10 | N 21.6 | |
| Ieri h: 10:00 | Molto Nuvoloso | 22 | 18 | 78 | 1016 | 10 | N 14.4 | |
| Ieri h: 09:00 | Coperto | 20 | 19 | 93 | 1016 | 10 | N 10.8 | |
| Ieri h: 08:00 | Coperto | 20 | 18 | 88 | 1015 | 10 | N/NE 10.8 | |
| Ieri h: 07:00 | Molto Nuvoloso | 19 | 18 | 93 | 1015 | 10 | N/NE 10.8 | |
| Ieri h: 06:00 | Molto Nuvoloso | 19 | 18 | 93 | 1015 | 10 | NE 10.8 | |
| Ieri h: 05:00 | Molto Nuvoloso | 19 | 18 | 93 | 1014 | 10 | N/NE 10.8 | |



